Time,B instrument,Bx,By,Bz,sigma B,Ion instrument,Status,Tp_par,Tp_perp,carrot,r_sun,clat,clong,earth_he_angle,n_p,vp_x,vp_y,vp_z,vth_p_par,vth_p_perp
1980-03-26 00:47:26,-1,nan,nan,nan,nan,1,3,nan,nan,1693,0.90620238,-2.9078474,180.5997,275.31845,nan,337.45,5.18156,-2.41368,nan,nan
1980-03-26 00:50:08,1,-4.33333,8.06667,4.26667,0.282843,1,1,54423.3,93427.4,1693,0.90619284,-2.9080262,180.57596,275.31815,5.96916,354.649,13.1912,6.54867,29.9744,39.2731
1980-03-26 00:54:39,1,-5.96667,5.6,6.4,0.531246,1,1,58709.9,92581.8,1693,0.90615851,-3.0552139,180.61816,275.39941,5.53465,349.184,11.6437,4.66367,31.1325,39.095
1980-03-26 00:55:32,1,-6.5,6.6,3.625,0.420565,1,1,53911.7,95785.3,1693,0.90614784,-3.0554094,180.6062,275.39917,5.43402,340.83,4.66896,3.4652,29.8332,39.7656
1980-03-26 00:58:16,1,-5.86667,6.66667,4.86667,0.365148,1,1,60441.0,102704.0,1693,0.90613723,-3.0556059,180.58228,275.39868,6.17547,340.221,4.56312,10.2182,31.5881,41.1768
1980-03-26 01:00:58,1,-6.63333,5.43333,5.9,0.210819,1,1,52488.8,89232.2,1693,0.90613014,-3.0557365,180.55884,275.39868,5.38683,340.888,1.8101,17.9833,29.4369,38.3812
1980-03-26 01:03:40,1,-4.96667,7.5,4.23333,0.194365,1,1,60625.2,97008.1,1693,0.90611947,-3.055932,180.53101,275.39819,5.47305,352.792,12.1807,4.50718,31.6362,40.0186
1980-03-26 01:06:22,1,-5.675,7.075,4.15,0.700892,1,1,50267.0,86555.7,1693,0.9061088,-3.0561275,180.50732,275.39795,5.22556,338.894,4.54173,13.2451,28.8071,37.8012
1980-03-26 01:09:04,1,-6.65,6.325,4.075,0.355317,1,1,53207.8,109090.0,1693,0.90609813,-3.056324,180.4834,275.39746,6.00184,336.818,6.03635,6.29997,29.6378,42.4376
1980-03-26 01:11:46,1,-6.0,7.03333,3.8,0.359011,1,1,52849.5,100266.0,1693,0.90609103,-3.0564547,180.45581,275.39722,5.78347,343.553,8.77748,4.94029,29.5378,40.6851
1980-03-26 01:14:28,1,-5.55,7.35,3.425,0.319179,1,1,49610.9,97012.9,1693,0.90608037,-3.0566502,180.43213,275.39697,5.44941,341.526,6.90069,5.2146,28.6185,40.0196
1980-03-26 01:17:10,1,-4.53333,8.13333,2.4,0.333333,1,1,51574.8,101396.0,1693,0.9060697,-3.0568457,180.40845,275.39673,5.6709,347.525,18.4237,-3.55414,29.1794,40.9136
1980-03-26 01:19:52,1,-4.03333,8.36667,0.933333,0.270801,1,1,61078.8,98681.8,1693,0.9060626,-3.0569763,180.38086,275.39648,5.50612,351.76,22.6888,-15.5863,31.7544,40.3623
1980-03-26 01:22:34,1,-4.16667,8.33333,1.2,0.194365,1,1,61267.8,105311.0,1693,0.90605193,-3.0571718,180.35693,275.396,5.28177,347.685,17.949,-18.0452,31.8034,41.6961
1980-03-26 01:25:16,1,-4.43333,7.86667,0.933333,0.316228,1,1,48255.5,114364.0,1693,0.90604132,-3.0573683,180.33325,275.39575,5.44424,343.357,17.1891,-13.9811,28.2248,43.4513
1980-03-26 01:27:58,1,-4.025,8.125,0.8,0.27157,1,1,58595.5,110642.0,1693,0.90603417,-3.0574989,180.30566,275.39551,5.58452,346.477,16.6856,-16.0621,31.1021,42.7383
1980-03-26 01:30:40,1,-3.675,8.525,0.45,0.470372,1,1,59945.3,102207.0,1693,0.90602356,-3.0576944,180.28198,275.39526,5.65266,352.352,17.443,-13.9058,31.4583,41.0769
1980-03-26 01:33:22,1,-4.05,8.05,0.4,0.264575,1,1,64188.2,110377.0,1693,0.90601289,-3.0578899,180.25806,275.39478,5.14379,349.395,16.7043,-19.4727,32.5526,42.6872
1980-03-26 01:36:04,1,-4.23333,7.83333,0.8,0.210819,1,1,52139.3,109750.0,1693,0.90600222,-3.0580864,180.23047,275.39453,5.2029,349.787,18.7013,-10.8004,29.3387,42.5658
1980-03-26 01:38:46,1,-3.96667,8.23333,1.06667,0.316228,1,1,54347.6,112803.0,1693,0.90599513,-3.058217,180.20679,275.39429,5.70484,347.419,18.5604,-16.1629,29.9535,43.1538
1980-03-26 01:41:28,1,-2.63333,8.56667,1.46667,0.316228,1,1,58528.9,121798.0,1693,0.90598446,-3.0584126,180.18286,275.3938,5.98163,361.579,22.6237,-6.1154,31.0844,44.8412
1980-03-26 01:44:10,1,-3.5,8.6,1.63333,0.188562,1,1,56516.6,96304.7,1693,0.90597379,-3.0586081,180.15527,275.39355,5.45629,353.824,19.8692,-2.9706,30.5454,39.8732
1980-03-26 01:46:52,1,-5.73333,6.86667,0.2,0.253859,1,1,53425.2,103357.0,1693,0.9059667,-3.0587387,180.13159,275.39331,5.1786,338.349,9.286,-20.0701,29.6983,41.3075
1980-03-26 01:49:34,1,-4.525,7.7,0.425,0.252488,1,1,57235.5,90502.3,1693,0.90595603,-3.0589352,180.10791,275.39307,5.20825,337.789,12.5465,-9.31109,30.7391,38.6534
1980-03-26 01:52:16,1,-4.5,7.275,-1.6,0.178536,1,1,51294.7,98354.7,1693,0.90594536,-3.0591307,180.08008,275.39258,5.41194,346.031,8.56199,-37.2875,29.1001,40.2954
1980-03-26 01:54:58,1,-3.55,8.25,2.45,0.691014,1,1,64766.7,96068.8,1693,0.90593827,-3.0592613,180.0564,275.39233,5.58997,350.351,17.0714,-9.41102,32.6989,39.8244
1980-03-26 01:57:40,1,-4.05,8.45,3.3,0.324037,1,1,61206.5,104181.0,1693,0.9059276,-3.0594568,180.03271,275.39209,5.77327,354.965,14.5661,5.9115,31.7875,41.4718
1980-03-26 02:00:22,1,-4.03333,8.8,2.8,0.385861,1,1,56119.7,103606.0,1693,0.90591699,-3.0596533,180.00513,275.39185,6.02006,350.977,12.8698,4.64051,30.438,41.3572
1980-03-26 02:03:04,1,-4.76667,7.86667,-1.23333,0.270801,1,1,50805.6,106392.0,1693,0.90590626,-3.0598488,179.9812,275.39136,6.36588,344.811,9.09747,-16.7225,28.961,41.9094
1980-03-26 02:05:46,1,-5.33333,6.56667,-2.66667,0.282843,1,1,47754.6,104870.0,1693,0.90589917,-3.0599794,179.95752,275.39111,5.49507,346.451,1.26942,-27.2816,28.078,41.6086
1980-03-26 02:08:28,1,-4.13333,7.0,-1.93333,0.592546,1,1,60933.2,100690.0,1693,0.9058885,-3.0601749,179.92993,275.39087,6.27437,365.367,27.457,-9.24019,31.7165,40.7709
1980-03-26 02:11:10,1,-5.725,1.3,-4.525,0.577711,1,1,56814.3,118442.0,1693,0.90587783,-3.0603714,179.90601,275.39038,5.59102,339.174,-20.0366,-37.9646,30.6257,44.2192
1980-03-26 02:13:52,1,1.0,8.45,3.0,0.278388,1,1,72077.0,108077.0,1693,0.90587068,-3.0605021,179.88232,275.39014,5.60457,383.94,24.8365,6.56842,34.495,42.2402
1980-03-26 02:16:34,1,-0.6,8.5,1.3,0.254951,1,1,79409.5,103796.0,1693,0.90586001,-3.0606976,179.85474,275.38989,5.72386,371.967,26.0558,-2.8014,36.2071,41.3951
1980-03-26 02:19:16,1,-1.95,8.4,0.6,0.180278,1,1,61993.8,125446.0,1693,0.90584934,-3.060894,179.83081,275.3894,5.60821,359.469,23.835,-10.125,31.9913,45.5079
1980-03-26 02:21:58,1,-2.93333,8.0,3.1,0.377124,1,1,60936.3,114746.0,1693,0.90584224,-3.0610247,179.80713,275.38916,5.7613,353.312,22.4487,5.58223,31.7173,43.5237
1980-03-26 02:24:40,1,-2.43333,8.2,0.133333,0.253859,1,1,57651.5,104918.0,1693,0.90583158,-3.0612202,179.77954,275.38892,5.11885,355.272,22.0911,-10.4681,30.8506,41.6181
1980-03-26 02:27:22,1,-1.9,8.3,-0.0666667,0.329983,1,1,69730.5,120173.0,1693,0.90582091,-3.0614166,179.75586,275.38867,5.87791,362.071,22.7836,-12.729,33.9289,44.5412
1980-03-26 02:30:04,1,-1.575,8.15,-0.1,0.253722,1,1,58231.9,129395.0,1693,0.90581024,-3.0616121,179.73193,275.38818,6.26371,357.164,20.0773,-14.2086,31.0055,46.2186
1980-03-26 02:32:46,1,-0.675,8.1,-1.3,0.476314,1,1,73620.8,125343.0,1693,0.90580308,-3.0617428,179.70435,275.38794,5.72493,372.142,19.4792,-21.3433,34.8625,45.4892
1980-03-26 02:35:28,1,0.466667,7.6,-1.53333,0.421637,1,1,64764.6,119430.0,1693,0.90579242,-3.0619383,179.68066,275.3877,5.41025,380.603,20.2942,-20.3452,32.6984,44.4032
1980-03-26 02:38:10,1,-2.76667,7.33333,-1.43333,0.282843,1,1,73390.3,112202.0,1693,0.90578175,-3.0621347,179.65674,275.38721,5.56365,350.434,16.8866,-21.1027,34.8079,43.0386
1980-03-26 02:40:52,1,-3.8,6.7,-1.86667,0.188562,1,1,43516.9,95248.7,1693,0.90577465,-3.0622654,179.62915,275.38696,4.53142,346.604,12.9372,-23.8595,26.8032,39.654
1980-03-26 02:43:34,1,-3.25,7.85,3.25,0.409268,1,1,60285.2,110708.0,1693,0.90576392,-3.0624609,179.60547,275.38672,4.86649,355.341,24.2411,15.941,31.5474,42.7511
1980-03-26 02:48:58,1,-5.0,7.5,0.733333,0.418994,1,1,52540.9,99156.5,1693,0.90574616,-3.062788,179.55396,275.38599,5.35676,335.952,15.9984,-12.2168,29.4515,40.4593
1980-03-26 02:51:40,1,-4.8,7.1,4.1,0.0,1,1,60164.4,129845.0,1693,0.90573549,-3.0629835,179.53027,275.38574,6.11078,342.797,15.593,16.1976,31.5157,46.2989
1980-03-26 02:54:22,1,-3.325,5.95,6.85,0.649519,1,1,60933.3,134539.0,1693,0.90572482,-3.06318,179.50635,275.38525,6.57099,344.986,3.7185,35.7332,31.7165,47.1284
1980-03-26 02:57:04,1,-3.73333,6.9,5.33333,0.533333,1,1,52499.4,109237.0,1693,0.90571415,-3.0633755,179.47876,275.38501,5.33879,348.246,10.1909,32.1626,29.4398,42.4661
1980-03-26 02:58:17,1,-4.26667,7.23333,4.16667,0.46188,1,1,47673.3,110050.0,1693,0.90571058,-3.0634413,179.47095,275.38501,5.80774,308.049,-44.2778,17.8801,28.054,42.6239
1980-03-26 02:59:46,1,-4.2,6.23333,5.83333,1.1005,1,1,61125.2,104649.0,1693,0.905707,-3.0635061,179.45508,275.38477,5.31799,352.681,8.72755,40.2508,31.7664,41.5647
1980-03-26 03:09:05,-1,nan,nan,nan,nan,1,3,nan,nan,1693,0.90567142,-3.0641594,179.36792,275.38354,nan,339.377,14.6556,-8.74018,nan,nan
1980-03-26 03:19:53,-1,nan,nan,nan,nan,1,4,nan,nan,1693,0.90563577,-3.0648127,179.26929,275.38257,nan,nan,nan,nan,nan,nan
1980-03-26 03:30:41,-1,nan,nan,nan,nan,1,3,nan,nan,1693,0.90559661,-3.0655308,179.17041,275.38135,nan,358.17,16.8922,-19.6693,nan,nan
1980-03-26 03:40:17,-1,nan,nan,nan,nan,1,3,nan,nan,1693,0.90556097,-3.066184,179.07935,275.38013,nan,349.796,9.90259,-21.2023,nan,nan
1980-03-26 04:01:53,-1,nan,nan,nan,nan,1,3,nan,nan,1693,0.90548617,-3.0675554,178.87769,275.37769,nan,346.922,-18.4316,37.1911,nan,nan
1980-03-26 04:12:41,-1,nan,nan,nan,nan,1,3,nan,nan,1693,0.90544689,-3.0682735,178.77881,275.37646,nan,332.634,-5.73898,12.4843,nan,nan
1980-03-26 04:23:29,-1,nan,nan,nan,nan,1,3,nan,nan,1693,0.90540767,-3.0689926,178.67993,275.37524,nan,345.674,-4.7837,-35.805,nan,nan
1980-03-26 04:34:17,-1,nan,nan,nan,nan,1,3,nan,nan,1693,0.90536845,-3.0697107,178.57715,275.37402,nan,354.998,-28.1425,-47.2079,nan,nan
1980-03-26 04:45:05,-1,nan,nan,nan,nan,1,3,nan,nan,1693,0.90532917,-3.0704288,178.47827,275.3728,nan,356.488,-25.9023,-47.4531,nan,nan
1980-03-26 04:55:53,-1,nan,nan,nan,nan,1,4,nan,nan,1693,0.90529352,-3.0710821,178.37939,275.37158,nan,nan,nan,nan,nan,nan
1980-03-26 05:17:29,-1,nan,nan,nan,nan,1,3,nan,nan,1693,0.90521497,-3.0725193,178.17773,275.36914,nan,361.55,-9.10262,-32.8008,nan,nan
1980-03-26 05:28:17,-1,nan,nan,nan,nan,1,3,nan,nan,1693,0.90517563,-3.0732384,178.07861,275.36768,nan,354.479,-17.7288,-32.5311,nan,nan
1980-03-26 05:39:05,-1,nan,nan,nan,nan,1,4,nan,nan,1693,0.90513635,-3.0739574,177.97583,275.36646,nan,nan,nan,nan,nan,nan
1980-03-26 05:49:53,-1,nan,nan,nan,nan,1,3,nan,nan,1693,0.90510064,-3.0746107,177.8772,275.36548,nan,361.44,-39.2377,-42.1957,nan,nan
1980-03-26 06:00:41,-1,nan,nan,nan,nan,1,3,nan,nan,1693,0.90506136,-3.0753298,177.77832,275.36426,nan,346.576,12.595,-7.90983,nan,nan
1980-03-26 06:11:29,-1,nan,nan,nan,nan,1,3,nan,nan,1693,0.90502197,-3.0760479,177.67529,275.36279,nan,359.684,-37.5393,-39.9255,nan,nan
1980-03-26 06:22:17,-1,nan,nan,nan,nan,1,3,nan,nan,1693,0.90498263,-3.076767,177.57642,275.36157,nan,368.434,-51.9585,-42.6162,nan,nan
1980-03-26 06:54:41,-1,nan,nan,nan,nan,1,3,nan,nan,1693,0.90486813,-3.0788574,177.27588,275.35791,nan,341.796,-35.9317,-33.8844,nan,nan
1980-03-26 07:05:29,-1,nan,nan,nan,nan,1,3,nan,nan,1693,0.90482873,-3.0795765,177.177,275.35669,nan,332.249,-25.2071,-28.4026,nan,nan
1980-03-26 07:16:17,-1,nan,nan,nan,nan,1,3,nan,nan,1693,0.90478933,-3.0802956,177.07422,275.35547,nan,336.615,-25.4222,13.511,nan,nan
1980-03-26 08:24:19,-1,nan,nan,nan,nan,1,4,nan,nan,1693,0.90454561,-3.0847406,176.44556,275.3479,nan,nan,nan,nan,nan,nan
1980-03-26 08:27:01,1,-1.06667,1.3,-6.26667,0.54569,1,1,52339.5,89611.7,1693,0.90453482,-3.0849361,176.41772,275.34741,5.51502,363.886,-22.1763,-36.0849,29.395,38.4627
1980-03-26 08:29:09,1,-2.76667,-0.6,-5.4,1.54991,1,1,66325.1,84128.0,1693,0.90455502,-2.9383216,176.31638,275.26559,5.57827,363.543,-65.9184,-36.0402,33.09,37.2673
1980-03-26 08:29:43,1,-2.35,1.175,-5.675,1.47691,1,1,72841.7,69023.2,1693,0.90452766,-3.0850668,176.39429,275.34741,5.00362,371.209,-40.3454,-38.1589,34.6775,33.7564
1980-03-26 08:31:51,1,-3.4,4.2,-4.3,0.469042,1,1,53812.7,94604.7,1693,0.90452045,-3.0851984,176.37451,275.34717,5.52406,362.594,-22.2927,-44.3865,29.8058,39.5198
1980-03-26 08:34:33,1,-4.9,4.9,-3.4,0.0,1,1,49693.4,84135.3,1693,0.90450972,-3.0853939,176.35059,275.34668,5.08725,350.46,-13.792,-28.6342,28.6423,37.2689
1980-03-26 08:37:15,1,-4.25,5.275,-3.4,0.494343,1,1,43091.1,76849.1,1693,0.90449893,-3.0855904,176.323,275.34644,4.83194,353.762,-3.526,-26.0078,26.6718,35.6186
1980-03-26 08:39:57,1,-5.5,4.6,-2.6,0.919239,1,1,41956.2,69422.7,1693,0.90449178,-3.085721,176.29932,275.34619,4.48129,342.497,-5.33445,-14.1312,26.3182,33.8539
1980-03-26 08:42:39,1,-4.65,-1.075,-4.5,0.298957,1,1,60815.1,67015.6,1693,0.90448099,-3.0859175,176.27563,275.34595,5.14657,350.834,-59.2159,-29.7571,31.6857,33.2618
1980-03-26 08:45:21,1,-3.63333,-0.733333,-5.3,0.380058,1,1,56892.6,82046.6,1693,0.90447026,-3.086113,176.2478,275.34546,5.33829,360.67,-49.9993,-35.1166,30.6469,36.8034
1980-03-26 08:48:03,1,-5.76667,0.2,-3.86667,0.323179,1,1,53545.9,76239.6,1693,0.90445948,-3.0863094,176.22412,275.34521,5.52581,342.608,-39.5817,-26.7039,29.7318,35.4771
1980-03-26 08:50:45,1,-5.43333,3.63333,-3.63333,0.571548,1,1,56394.3,75235.4,1693,0.90445232,-3.0864401,176.20044,275.34497,5.47575,347.636,-10.5074,-24.1048,30.5123,35.2427
1980-03-26 08:53:27,1,-3.66667,7.03333,-1.6,0.413656,1,1,43127.7,77545.9,1693,0.90444154,-3.0866365,176.17285,275.34473,5.22694,357.574,10.7637,-6.7077,26.6831,35.7798
1980-03-26 08:56:09,1,-3.275,7.7,-0.275,0.351781,1,1,53614.5,69904.3,1693,0.90443075,-3.086832,176.14893,275.34424,5.20811,360.454,15.5327,-0.270679,29.7508,33.9711
1980-03-26 08:58:51,1,-6.43333,5.06667,-1.03333,0.454606,1,1,48472.2,84961.1,1693,0.90442359,-3.0869627,176.12524,275.34399,5.01038,337.867,-1.8614,-9.96195,28.2881,37.4514
1980-03-26 09:01:33,1,-4.65,6.875,0.1,0.463006,1,1,52128.5,67574.5,1693,0.90441281,-3.0871592,176.09766,275.34375,4.74973,351.361,11.6058,-5.07964,29.3356,33.4002
1980-03-26 09:04:15,1,-7.7,4.1,1.2,0.0,1,1,46041.2,79440.6,1693,0.90440202,-3.0873556,176.07397,275.34351,5.3894,329.847,-7.42483,5.53069,27.5696,36.2142
1980-03-26 09:06:57,1,-7.33333,4.4,1.73333,0.405518,1,1,48448.3,83684.6,1693,0.90439487,-3.0874863,176.05029,275.34326,4.94462,325.702,-11.2217,13.8534,28.2812,37.169
1980-03-26 09:09:39,1,-6.4,5.83333,2.43333,0.352767,1,1,39838.0,76061.1,1693,0.90438408,-3.0876827,176.02246,275.34277,5.18209,336.458,5.15888,14.1672,25.6452,35.4355
1980-03-26 09:12:21,1,-5.36667,6.3,3.53333,0.24037,1,1,46450.3,81132.6,1693,0.90437329,-3.0878782,175.99878,275.34253,4.99108,343.909,5.44956,23.3145,27.6919,36.5979
1980-03-26 09:15:03,1,-5.36667,6.0,5.13333,0.278887,1,1,47368.4,76592.4,1693,0.90436256,-3.0880747,175.9751,275.34229,4.7746,343.931,2.64888,32.957,27.9642,35.5591
1980-03-26 09:17:45,1,-5.3,5.6,5.13333,0.188562,1,1,45933.8,82462.8,1693,0.90435535,-3.0882053,175.94751,275.34204,4.89037,343.267,3.2473,34.3476,27.5375,36.8967
1980-03-26 09:20:27,1,-5.0,5.625,5.2,0.311247,1,1,42032.7,76223.4,1693,0.90434456,-3.0884018,175.92358,275.34155,4.66634,347.663,5.76095,36.329,26.3422,35.4733
1980-03-26 09:23:09,1,-4.075,7.025,4.425,0.332603,1,1,39714.7,67461.1,1693,0.90433377,-3.0885983,175.8999,275.34131,4.1502,351.318,8.97422,27.775,25.6055,33.3722
1980-03-26 09:25:51,1,-5.075,6.25,4.95,0.471036,1,1,41158.0,73971.5,1693,0.90432662,-3.0887289,175.87231,275.34106,4.98388,343.113,3.13167,32.0351,26.0666,34.9454
1980-03-26 09:28:33,1,-5.96667,5.43333,5.2,0.719568,1,1,42123.6,68033.1,1693,0.90431583,-3.0889244,175.84839,275.34058,4.83242,334.408,-3.00197,23.5228,26.3706,33.5134
1980-03-26 09:31:15,1,-5.4,5.53333,5.66667,0.253859,1,1,37513.8,73035.8,1693,0.90430504,-3.0891209,175.82471,275.34033,4.81681,337.307,-12.4791,40.4145,24.8859,34.7237
1980-03-26 09:33:57,1,-4.43333,7.46667,3.23333,0.52915,1,1,42397.3,77110.1,1693,0.90429789,-3.0892515,175.79712,275.34009,5.08624,346.818,10.3635,15.3486,26.4562,35.6791
1980-03-26 09:36:39,1,-3.23333,8.0,2.86667,0.343188,1,1,51996.3,74585.1,1693,0.9042871,-3.089448,175.77344,275.33984,5.02193,359.875,17.2266,11.6341,29.2984,35.09
1980-03-26 09:39:21,1,-2.475,8.375,2.15,0.735697,1,1,45292.2,67318.9,1693,0.90427631,-3.0896444,175.74951,275.33936,5.20867,355.812,15.5952,14.106,27.3445,33.337
1980-03-26 09:42:03,1,-4.35,7.15,4.55,0.48734,1,1,44312.6,73774.5,1693,0.90426552,-3.0898399,175.72192,275.33911,4.83165,346.768,9.87174,28.16,27.0471,34.8988
1980-03-26 09:44:45,1,-4.43333,6.3,5.43333,0.323179,1,1,44202.1,75384.2,1693,0.90425837,-3.0899706,175.69824,275.33887,4.91753,344.218,0.410205,38.1816,27.0134,35.2775
1980-03-26 09:47:27,1,-4.16667,6.6,5.13333,0.42947,1,1,46392.9,71457.5,1693,0.90424758,-3.090167,175.67456,275.33862,4.5932,344.714,4.52868,35.6034,27.6748,34.3464
1980-03-26 09:50:09,1,-3.575,7.725,3.6,0.329773,1,1,44631.2,59052.8,1693,0.90423679,-3.0903635,175.64673,275.33813,4.67283,347.222,11.0932,19.9458,27.1442,31.2233
1980-03-26 09:52:51,1,-3.475,7.725,3.675,0.464354,1,1,40196.9,71646.9,1693,0.90422964,-3.0904942,175.62305,275.33789,5.0386,356.258,16.3573,17.9752,25.7605,34.3919
1980-03-26 09:55:33,1,-3.26667,8.13333,2.86667,0.34641,1,1,45280.5,66071.7,1693,0.90421885,-3.0906906,175.59937,275.33765,4.48971,340.554,5.4607,23.6967,27.341,33.0267
1980-03-26 09:58:15,1,-4.33333,7.76667,1.46667,0.270801,1,1,31966.6,65704.2,1693,0.90420806,-3.0908861,175.57153,275.33716,4.51632,346.924,15.5443,2.11987,22.9724,32.9348
1980-03-26 10:00:57,1,-3.93333,7.1,3.6,1.03064,1,1,42866.7,57429.2,1693,0.90420091,-3.0910177,175.5481,275.33716,3.96781,347.768,8.8035,30.4574,26.6022,30.791
1980-03-26 10:03:39,1,-4.3,7.66667,2.26667,0.42947,1,1,49892.4,70383.3,1693,0.90419006,-3.0912132,175.52417,275.33667,5.10745,349.771,16.1,3.82915,28.6996,34.0873
1980-03-26 10:06:21,1,-6.0,6.43333,1.83333,0.487625,1,1,36542.1,71189.1,1693,0.90417928,-3.0914097,175.49658,275.33643,5.05663,337.724,8.71604,4.02252,24.5615,34.2819
1980-03-26 10:09:03,1,-2.96667,7.23333,5.2,0.210819,1,1,41467.5,65216.5,1693,0.90416849,-3.0916061,175.47266,275.33594,4.32002,352.91,10.9655,28.5016,26.1645,32.8123
1980-03-26 10:11:45,1,-4.0,7.525,3.9,0.248747,1,1,47461.4,68900.3,1693,0.90416127,-3.0917368,175.44897,275.33569,4.8752,347.517,12.2564,19.75,27.9916,33.7263
1980-03-26 10:23:54,1,-3.67143,7.64286,4.4,0.156492,1,1,48918.5,76575.6,1693,0.90414286,-2.9459014,175.25259,275.25259,5.09357,349.614,11.8541,23.4892,28.4181,35.5552
1980-03-26 10:25:14,1,-3.27143,7.75714,5.07143,0.312984,1,1,36393.9,71099.5,1693,0.90413803,-2.9459891,175.24072,275.25244,4.91293,350.377,11.9816,26.8104,24.5116,34.2603
1980-03-26 10:25:58,1,-2.85714,7.81429,5.28571,0.332584,1,1,37148.4,75208.6,1693,0.90411091,-3.0926523,175.3147,275.33423,4.92279,355.411,11.7019,30.3546,24.7644,35.2364
1980-03-26 10:26:35,1,-3.1,7.72857,5.11429,0.312332,1,1,44182.1,66592.7,1693,0.90410733,-3.0927172,175.31055,275.33398,4.98208,354.635,11.8859,27.5763,27.0073,33.1567
1980-03-26 10:27:56,1,-3.05714,7.21429,5.77143,0.316228,1,1,38488.1,77066.0,1693,0.90410376,-3.092783,175.29883,275.33398,4.90773,349.952,8.30456,30.0275,25.207,35.6689
1980-03-26 10:29:17,1,-3.31429,6.94286,6.11429,0.271052,1,1,39805.7,71958.7,1693,0.90409654,-3.0929136,175.28687,275.33374,4.73205,354.107,4.90009,39.4352,25.6348,34.4667
1980-03-26 10:30:38,1,-3.42857,7.18571,5.54286,0.261861,1,1,41296.5,76539.2,1693,0.90409297,-3.0929794,175.27124,275.33374,4.74814,349.302,8.20161,29.1008,26.1104,35.5468
1980-03-26 10:31:59,1,-4.54286,6.7,4.77143,0.572142,1,1,35014.9,67888.3,1693,0.90408933,-3.0930443,175.25928,275.3335,4.70692,337.043,-1.4184,31.3492,24.0428,33.4777
1980-03-26 10:33:20,1,-4.57143,7.54286,2.44286,0.811398,1,1,34863.7,78681.5,1693,0.90408212,-3.0931749,175.24731,275.33325,5.15128,342.79,10.2806,17.7377,23.9908,36.0408
1980-03-26 10:34:41,1,-3.14286,7.02857,5.37143,0.553652,1,1,51922.4,81112.9,1693,0.90407854,-3.0932407,175.2356,275.33325,5.76286,351.178,11.3784,23.0192,29.2776,36.5934
1980-03-26 10:36:02,1,-2.75714,6.8,6.08571,0.513491,1,1,42805.4,75223.3,1693,0.90407133,-3.0933714,175.22363,275.33301,5.00051,357.848,6.13069,38.8109,26.5832,35.2399
1980-03-26 10:37:23,1,-4.41429,5.9,6.22857,0.466424,1,1,40493.5,62874.1,1693,0.90406775,-3.0934362,175.21167,275.33276,4.252,345.715,-1.15205,42.0403,25.8554,32.2176
1980-03-26 10:38:44,1,-2.98333,6.28333,6.8,0.525463,1,1,40629.8,64162.5,1693,0.90406418,-3.093502,175.19604,275.33276,4.50914,357.688,6.19528,39.9866,25.8988,32.5461
1980-03-26 10:40:05,1,-3.55714,7.44286,4.17143,0.561703,1,1,43400.9,70355.2,1693,0.90405697,-3.0936327,175.18408,275.33252,4.91426,351.369,11.1597,20.1901,26.7675,34.0805
1980-03-26 10:41:26,1,-4.07143,7.64286,3.31429,0.342261,1,1,37730.1,69930.4,1693,0.90405339,-3.0936985,175.17212,275.33228,4.41047,348.581,12.973,17.2271,24.9575,33.9775
1980-03-26 10:42:47,1,-4.02857,7.65714,2.05714,0.47937,1,1,44374.9,61674.6,1693,0.90404975,-3.0937634,175.1604,275.33228,4.6633,347.934,11.8435,4.5252,27.0662,31.9088
1980-03-26 10:44:08,1,-4.37143,7.44286,0.457143,0.313636,1,1,42526.2,76136.3,1693,0.90404254,-3.093894,175.14844,275.33203,5.02452,348.578,11.3969,-13.1538,26.4963,35.4531
1980-03-26 10:45:29,1,-3.86667,7.86667,1.86667,0.718795,1,1,43629.8,62171.3,1693,0.90403897,-3.0939598,175.13672,275.33203,4.6371,350.596,13.8847,-6.21519,26.838,32.0371
1980-03-26 10:46:50,1,-4.37143,6.51429,5.05714,1.99356,1,1,41222.3,71471.0,1693,0.90403539,-3.0940256,175.12085,275.33179,5.10844,347.454,10.8504,13.0892,26.087,34.3497
1980-03-26 10:48:11,1,-3.82857,4.4,8.08571,0.902604,1,1,41506.2,72586.6,1693,0.90402818,-3.0941563,175.10889,275.33154,4.71196,345.016,-22.2388,53.9577,26.1767,34.6167
1980-03-26 10:49:32,1,-4.22857,5.47143,6.75714,0.4607,1,1,37373.9,53283.5,1693,0.9040246,-3.0942211,175.09717,275.33154,4.22614,344.7,-7.55425,46.167,24.8395,29.6589
1980-03-26 10:50:53,1,-4.12857,4.08571,7.72857,0.377424,1,1,41771.9,69168.4,1693,0.90402097,-3.0942869,175.08521,275.3313,4.75935,343.132,-16.2932,54.1205,26.2603,33.7918
1980-03-26 10:52:14,1,-3.51429,2.64286,8.71429,0.988092,1,1,46337.7,73488.7,1693,0.90401375,-3.0944176,175.07324,275.33105,5.00742,348.078,-15.9747,49.6993,27.6583,34.8312
1980-03-26 10:53:35,1,-3.94286,6.48571,5.42857,1.28952,1,1,37897.7,66945.0,1693,0.90401018,-3.0944834,175.06152,275.33105,4.87288,346.907,1.92823,37.1173,25.0129,33.2443
1980-03-26 10:54:56,1,-1.74286,7.71429,4.71429,1.03194,1,1,38416.8,51552.3,1693,0.9040066,-3.0945482,175.04565,275.33081,3.53636,363.99,14.7913,21.2979,25.1836,29.1731
1980-03-26 10:56:17,1,-2.86667,6.5,6.0,0.823947,1,1,43851.3,109111.0,1693,0.90399939,-3.0946789,175.03369,275.33057,6.83709,350.413,1.95967,37.2814,26.906,42.4416
1980-03-26 10:57:38,1,-2.52857,7.22857,5.57143,0.245781,1,1,39091.8,69282.5,1693,0.90399581,-3.0947447,175.02197,275.33057,4.63032,354.677,7.97201,31.5156,25.4039,33.8197
1980-03-26 10:58:59,1,-3.34286,6.81429,5.37143,1.36277,1,1,39115.3,96912.6,1693,0.90399218,-3.0948095,175.01001,275.33032,6.49869,346.613,4.96547,28.3426,25.4116,39.9989
1980-03-26 11:00:20,1,-2.55714,7.65714,3.81429,1.35556,1,1,41580.8,61527.4,1693,0.90398502,-3.0949411,174.99829,275.33032,4.61836,353.785,10.7799,29.3528,26.2002,31.8707
1980-03-26 11:01:41,1,-3.51429,7.18571,4.8,0.629869,1,1,43182.4,56710.9,1693,0.90398139,-3.095006,174.98633,275.33008,4.21605,352.168,11.3367,22.1386,26.7,30.5979
1980-03-26 11:03:02,1,-1.98571,8.44286,2.75714,0.526831,1,1,44354.6,64914.0,1693,0.90397418,-3.0951366,174.97046,275.32983,4.95657,366.208,17.0841,6.96627,27.06,32.7361
1980-03-26 11:04:23,1,-4.22857,6.47143,5.01429,1.72449,1,1,37683.0,65331.1,1693,0.9039706,-3.0952024,174.95874,275.32983,4.99139,339.969,0.0737627,28.1195,24.942,32.8411
1980-03-26 11:05:44,1,-4.21429,6.92857,4.91429,1.05231,1,1,39044.4,68672.7,1693,0.90396696,-3.0952682,174.94678,275.32959,4.72516,342.648,4.17312,29.245,25.3885,33.6705
1980-03-26 11:07:05,1,-3.38333,7.86667,4.06667,0.559017,1,1,43077.3,66159.1,1693,0.90395981,-3.0953989,174.93481,275.32935,5.21807,353.886,11.7638,21.0429,26.6675,33.0486
1980-03-26 11:08:26,1,-4.28571,6.71429,5.21429,0.519026,1,1,38691.9,76624.1,1693,0.90395617,-3.0954638,174.9231,275.32935,5.31358,339.61,4.59083,29.5065,25.2736,35.5665
1980-03-26 11:09:47,1,-5.01429,6.08571,5.32857,0.323249,1,1,37696.0,54704.7,1693,0.9039526,-3.0955296,174.91138,275.32935,4.85985,337.077,-0.601098,30.9369,24.9463,30.0518